TimePDT,TemperatureF,Dew PointF,Humidity,Sea Level PressureIn,VisibilityMPH,Wind Direction,Wind SpeedMPH,Gust SpeedMPH,PrecipitationIn,Events,Conditions,WindDirDegrees,DateUTC
12:15 AM,66.2,26.6,23,29.85,10.0,NE,6.9,-,N/A,,Clear,50,2013-05-26 07:15:00
12:35 AM,68.0,19.4,16,29.85,10.0,Calm,Calm,-,N/A,,Clear,0,2013-05-26 07:35:00
12:55 AM,68.0,21.2,17,29.85,10.0,Calm,Calm,-,N/A,,Clear,0,2013-05-26 07:55:00
1:15 AM,66.2,23.0,19,29.86,10.0,Calm,Calm,-,N/A,,Clear,0,2013-05-26 08:15:00
1:35 AM,71.6,15.8,12,29.85,10.0,Calm,Calm,-,N/A,,Clear,0,2013-05-26 08:35:00
1:55 AM,69.8,19.4,15,29.86,10.0,Calm,Calm,-,N/A,,Clear,0,2013-05-26 08:55:00
2:15 AM,71.6,21.2,15,29.86,10.0,Calm,Calm,-,N/A,,Clear,0,2013-05-26 09:15:00
2:35 AM,71.6,23.0,16,29.85,10.0,SSE,3.5,-,N/A,,Clear,150,2013-05-26 09:35:00
2:55 AM,69.8,23.0,17,29.85,10.0,SSE,3.5,-,N/A,,Clear,150,2013-05-26 09:55:00
3:15 AM,66.2,32.0,28,29.85,10.0,Calm,Calm,-,N/A,,Clear,0,2013-05-26 10:15:00
3:35 AM,62.6,32.0,32,29.85,10.0,Calm,Calm,-,N/A,,Clear,0,2013-05-26 10:35:00
3:55 AM,62.6,33.8,34,29.85,10.0,Calm,Calm,-,N/A,,Clear,0,2013-05-26 10:55:00
4:15 AM,62.6,32.0,32,29.85,10.0,NNE,4.6,-,N/A,,Clear,20,2013-05-26 11:15:00
4:35 AM,62.6,32.0,32,29.85,10.0,Calm,Calm,-,N/A,,Clear,0,2013-05-26 11:35:00
4:55 AM,60.8,32.0,34,29.85,10.0,Calm,Calm,-,N/A,,Clear,0,2013-05-26 11:55:00
5:15 AM,62.6,32.0,32,29.85,10.0,Calm,Calm,-,N/A,,Clear,0,2013-05-26 12:15:00
5:35 AM,62.6,28.4,27,29.86,10.0,Calm,Calm,-,N/A,,Clear,0,2013-05-26 12:35:00
5:55 AM,64.4,28.4,26,29.86,10.0,Calm,Calm,-,N/A,,Clear,0,2013-05-26 12:55:00
6:15 AM,62.6,32.0,32,29.87,10.0,NNE,3.5,-,N/A,,Clear,30,2013-05-26 13:15:00
6:35 AM,64.4,32.0,30,29.87,10.0,Calm,Calm,-,N/A,,Clear,0,2013-05-26 13:35:00
6:55 AM,68.0,32.0,26,29.88,10.0,Calm,Calm,-,N/A,,Clear,0,2013-05-26 13:55:00
7:15 AM,71.6,26.6,19,29.88,10.0,Calm,Calm,-,N/A,,Clear,0,2013-05-26 14:15:00
7:35 AM,73.4,24.8,16,29.88,10.0,Calm,Calm,-,N/A,,Clear,0,2013-05-26 14:35:00
7:55 AM,73.4,24.8,16,29.88,10.0,Calm,Calm,-,N/A,,Clear,0,2013-05-26 14:55:00
8:15 AM,75.2,24.8,15,29.89,10.0,Calm,Calm,-,N/A,,Clear,0,2013-05-26 15:15:00
8:35 AM,77.0,23.0,13,29.89,10.0,South,8.1,-,N/A,,Clear,180,2013-05-26 15:35:00
8:55 AM,77.0,23.0,13,29.90,10.0,WSW,5.8,-,N/A,,Clear,240,2013-05-26 15:55:00
9:15 AM,80.6,23.0,12,29.90,10.0,SSE,12.7,20.7,N/A,,Clear,150,2013-05-26 16:15:00
9:35 AM,80.6,23.0,12,29.89,10.0,SE,16.1,24.2,N/A,,Clear,140,2013-05-26 16:35:00
9:55 AM,82.4,21.2,10,29.89,10.0,SSE,15.0,23.0,N/A,,Clear,160,2013-05-26 16:55:00
10:15 AM,82.4,21.2,10,29.89,10.0,South,17.3,26.5,N/A,,Clear,170,2013-05-26 17:15:00
10:35 AM,84.2,21.2,10,29.89,10.0,SSE,19.6,25.3,N/A,Thunderstorm,Clear,150,2013-05-26 17:35:00
10:55 AM,84.2,23.0,11,29.89,10.0,SSE,18.4,27.6,N/A,,Clear,160,2013-05-26 17:55:00
11:15 AM,84.2,23.0,11,29.89,10.0,South,16.1,27.6,N/A,,Clear,170,2013-05-26 18:15:00
11:35 AM,84.2,21.2,10,29.88,10.0,SE,21.9,32.2,N/A,,Clear,140,2013-05-26 18:35:00
11:55 AM,86.0,21.2,9,29.88,8.0,SE,21.9,26.5,N/A,,Clear,140,2013-05-26 18:55:00
12:15 PM,86.0,21.2,9,29.87,10.0,SSE,23.0,32.2,N/A,,Clear,150,2013-05-26 19:15:00
12:35 PM,86.0,21.2,9,29.86,10.0,SSE,25.3,32.2,N/A,,Clear,150,2013-05-26 19:35:00
12:55 PM,87.8,21.2,9,29.86,10.0,SE,24.2,33.4,N/A,Thunderstorm,Clear,140,2013-05-26 19:55:00
1:15 PM,89.6,19.4,8,29.86,10.0,South,18.4,26.5,N/A,,Clear,190,2013-05-26 20:15:00
1:35 PM,91.4,21.2,8,29.85,10.0,SE,17.3,29.9,N/A,,Clear,140,2013-05-26 20:35:00
1:55 PM,91.4,21.2,8,29.85,10.0,South,19.6,36.8,N/A,,Clear,170,2013-05-26 20:55:00
2:15 PM,91.4,19.4,7,29.85,10.0,South,19.6,25.3,N/A,,Clear,170,2013-05-26 21:15:00
2:35 PM,89.6,21.2,8,29.83,10.0,SSE,31.1,35.7,N/A,Thunderstorm,Clear,150,2013-05-26 21:35:00
2:55 PM,89.6,21.2,8,29.83,10.0,SE,24.2,33.4,N/A,Thunderstorm,Clear,140,2013-05-26 21:55:00
3:15 PM,91.4,21.2,8,29.82,10.0,South,27.6,35.7,N/A,,Clear,170,2013-05-26 22:15:00
3:35 PM,89.6,21.2,8,29.82,10.0,SE,25.3,33.4,N/A,,Clear,140,2013-05-26 22:35:00
3:55 PM,91.4,19.4,7,29.82,10.0,SSW,19.6,32.2,N/A,,Clear,210,2013-05-26 22:55:00
4:15 PM,91.4,19.4,7,29.81,9.0,WSW,6.9,50.6,N/A,,Clear,250,2013-05-26 23:15:00
4:35 PM,91.4,21.2,8,29.81,10.0,SW,5.8,20.7,N/A,,Clear,230,2013-05-26 23:35:00
4:55 PM,89.6,21.2,8,29.80,10.0,SW,24.2,27.6,N/A,,Clear,230,2013-05-26 23:55:00
5:15 PM,89.6,21.2,8,29.79,10.0,SW,16.1,-,N/A,,Clear,230,2013-05-27 00:15:00
5:35 PM,89.6,21.2,8,29.80,10.0,WSW,16.1,20.7,N/A,,Clear,240,2013-05-27 00:35:00
5:55 PM,89.6,23.0,9,29.80,10.0,WSW,17.3,24.2,N/A,,Clear,240,2013-05-27 00:55:00
6:15 PM,89.6,23.0,9,29.80,10.0,WSW,18.4,25.3,N/A,,Clear,240,2013-05-27 01:15:00
6:35 PM,86.0,23.0,10,29.80,10.0,SW,17.3,25.3,N/A,,Clear,230,2013-05-27 01:35:00
6:55 PM,86.0,23.0,10,29.81,10.0,SW,16.1,24.2,N/A,,Clear,230,2013-05-27 01:55:00
7:15 PM,86.0,23.0,10,29.81,10.0,WSW,16.1,20.7,N/A,,Clear,250,2013-05-27 02:15:00
7:35 PM,84.2,23.0,11,29.82,10.0,WSW,8.1,-,N/A,,Clear,240,2013-05-27 02:35:00
7:55 PM,82.4,23.0,11,29.82,10.0,WSW,10.4,-,N/A,,Clear,250,2013-05-27 02:55:00
8:15 PM,82.4,23.0,11,29.83,10.0,West,11.5,-,N/A,,Clear,260,2013-05-27 03:15:00
8:35 PM,82.4,24.8,12,29.83,10.0,WSW,11.5,-,N/A,,Clear,250,2013-05-27 03:35:00
8:55 PM,82.4,24.8,12,29.83,10.0,SW,8.1,-,N/A,,Clear,230,2013-05-27 03:55:00
9:15 PM,78.8,24.8,14,29.84,10.0,South,6.9,-,N/A,,Clear,190,2013-05-27 04:15:00
9:35 PM,77.0,24.8,14,29.84,10.0,South,4.6,-,N/A,,Clear,190,2013-05-27 04:35:00
9:55 PM,77.0,24.8,14,29.85,10.0,SSW,8.1,-,N/A,,Clear,210,2013-05-27 04:55:00
10:15 PM,77.0,24.8,14,29.86,10.0,South,5.8,-,N/A,,Clear,190,2013-05-27 05:15:00
10:35 PM,75.2,24.8,15,29.86,10.0,SW,6.9,-,N/A,,Clear,230,2013-05-27 05:35:00
10:55 PM,75.2,24.8,15,29.86,10.0,SSW,10.4,-,N/A,,Clear,210,2013-05-27 05:55:00
11:15 PM,75.2,26.6,17,29.86,10.0,SSW,6.9,-,N/A,,Clear,200,2013-05-27 06:15:00
11:35 PM,75.2,26.6,17,29.86,10.0,SSW,8.1,-,N/A,,Clear,210,2013-05-27 06:35:00
11:55 PM,73.4,28.4,19,29.87,10.0,WSW,6.9,-,N/A,,Clear,250,2013-05-27 06:55:00